M I D A S
Marine Information and Data Acquisition System
Tripno 1621 of the Zeeleeuw from 2008-12-17 07:56:55 to 2008-12-17 14:39:23
Back to CruiseResearch ActivitiesStationsMapUnderway DataData graphs

EquipmentUnitsComment
TimeDGPSUTC
LatitudeDGPSDM.mWGS84
LongitudeDGPSDM.mWGS84
HeadingGyrodeg 
SOGDGPSknotsSpeed over ground
COGDGPSdegCourse over ground
DepthEcho soundermeters200 kHz
Missing or incorrect values are displayed as -999
Navigation data collected by the RV Zeeleeuw from 2008-12-17 08:00:30 to 2008-12-17 14:43:06
                                                                                    Next 1000 lines
Time Latitude Longitude Heading SOG COG Depth
2008-12-17 08:00:40 51°13.662 2°55.952 108.4 1.3 290 6.1
2008-12-17 08:00:45 51°13.663 2°55.948 108.4 1.8 295 6.3
2008-12-17 08:00:50 51°13.664 2°55.944 108.4 2.4 292 6.4
2008-12-17 08:00:55 51°13.666 2°55.938 108.4 2.8 294 -999
2008-12-17 08:01:01 51°13.668 2°55.931 108.4 3.1 292 -999
2008-12-17 08:01:07 51°13.67 2°55.923 108.6 3.3 292 -999
2008-12-17 08:01:12 51°13.672 2°55.915 108.4 3.5 291 -999
2008-12-17 08:01:18 51°13.674 2°55.906 108.1 3.7 290 -999
2008-12-17 08:01:23 51°13.675 2°55.899 107.3 3.7 289 -999
2008-12-17 08:01:28 51°13.677 2°55.891 106.3 3.6 288 -999
2008-12-17 08:01:34 51°13.679 2°55.882 105.6 3.5 288 -999
2008-12-17 08:01:38 51°13.68 2°55.876 104.8 3.5 288 -999
2008-12-17 08:01:43 51°13.681 2°55.869 103.9 3.4 287 -999
2008-12-17 08:01:48 51°13.683 2°55.862 103 3.4 287 -999
2008-12-17 08:01:53 51°13.684 2°55.855 101.9 3.2 287 -999
2008-12-17 08:01:58 51°13.685 2°55.848 100.9 3.1 286 -999
2008-12-17 08:02:03 51°13.686 2°55.841 99.7 3.1 285 8.7
2008-12-17 08:02:07 51°13.687 2°55.836 98.8 3 286 8.8
2008-12-17 08:02:12 51°13.688 2°55.83 97.4 2.9 285 8.8
2008-12-17 08:02:17 51°13.689 2°55.823 96.3 2.8 284 8.8
2008-12-17 08:02:22 51°13.69 2°55.818 94.6 2.8 284 8.9
2008-12-17 08:02:27 51°13.691 2°55.812 93.1 2.7 283 9.2
2008-12-17 08:02:31 51°13.692 2°55.808 91.6 2.6 283 9.4
2008-12-17 08:02:36 51°13.692 2°55.802 90.1 2.6 282 9.7
2008-12-17 08:02:41 51°13.693 2°55.797 88.7 2.5 281 9.9
2008-12-17 08:02:46 51°13.694 2°55.792 87.4 2.4 279 10.5
2008-12-17 08:02:51 51°13.694 2°55.787 85.8 2.4 279 11
2008-12-17 08:02:55 51°13.695 2°55.783 83.5 2.3 278 11.2
2008-12-17 08:03:00 51°13.695 2°55.778 81.6 2.2 276 11.9
2008-12-17 08:03:05 51°13.695 2°55.773 79.9 2.1 276 12.5
2008-12-17 08:03:10 51°13.696 2°55.769 77.4 2 274 12.8
2008-12-17 08:03:15 51°13.696 2°55.764 75.8 2 273 13.1
2008-12-17 08:03:20 51°13.696 2°55.76 73.5 1.9 273 13.3
2008-12-17 08:03:25 51°13.696 2°55.756 71.5 1.8 272 13
2008-12-17 08:03:30 51°13.697 2°55.752 69.6 1.7 271 12.6
2008-12-17 08:03:35 51°13.697 2°55.749 68.1 1.6 270 12.5
2008-12-17 08:03:39 51°13.697 2°55.746 65.8 1.5 269 12.3
2008-12-17 08:03:44 51°13.697 2°55.743 64 1.4 268 12.1
2008-12-17 08:03:50 51°13.697 2°55.74 62 1.3 269 12.1
2008-12-17 08:03:55 51°13.697 2°55.737 60.5 1.2 268 12.2
2008-12-17 08:04:00 51°13.696 2°55.734 58.3 1.1 268 12.1
2008-12-17 08:04:05 51°13.696 2°55.732 56.8 1 268 12
2008-12-17 08:04:10 51°13.696 2°55.731 54.5 0.9 271 12.1
2008-12-17 08:04:15 51°13.696 2°55.729 52.8 0.8 273 12.4
2008-12-17 08:04:20 51°13.696 2°55.727 50.3 0.7 277 12.6
2008-12-17 08:04:25 51°13.697 2°55.725 48.6 0.6 281 12.5
2008-12-17 08:04:30 51°13.698 2°55.724 45.9 0.6 288 12.6
2008-12-17 08:04:35 51°13.698 2°55.723 43.6 0.5 293 12.9
2008-12-17 08:04:40 51°13.698 2°55.722 41 0.5 301 13.6
2008-12-17 08:04:45 51°13.698 2°55.721 38.9 0.5 307 14
2008-12-17 08:04:50 51°13.699 2°55.72 35.8 0.5 313 14.3
2008-12-17 08:04:55 51°13.699 2°55.719 32.9 0.6 314 14.8
2008-12-17 08:05:00 51°13.7 2°55.718 30.5 0.5 310 15.1
2008-12-17 08:05:05 51°13.7 2°55.717 28.8 0.6 308 15.1
2008-12-17 08:05:10 51°13.7 2°55.716 27.1 0.5 298 15.2
2008-12-17 08:05:15 51°13.701 2°55.715 25 0.5 291 15.3
2008-12-17 08:05:20 51°13.701 2°55.714 23.3 0.5 284 15.4
2008-12-17 08:05:25 51°13.701 2°55.713 22 0.6 273 15.5
2008-12-17 08:05:30 51°13.701 2°55.712 20.5 0.6 266 15.6
2008-12-17 08:05:35 51°13.701 2°55.711 19 0.6 259 15.6
2008-12-17 08:05:40 51°13.7 2°55.71 17.3 0.6 251 15.9
2008-12-17 08:05:45 51°13.7 2°55.709 16.1 0.6 245 16.1
2008-12-17 08:05:50 51°13.7 2°55.707 14.2 0.7 240 16.3
2008-12-17 08:05:55 51°13.699 2°55.706 13 0.7 239 16.4
2008-12-17 08:05:59 51°13.699 2°55.705 11.1 0.6 239 16.4
2008-12-17 08:06:05 51°13.698 2°55.704 9.6 0.6 236 16.5
2008-12-17 08:06:10 51°13.698 2°55.702 8.3 0.6 235 16.6
2008-12-17 08:06:15 51°13.697 2°55.701 7.5 0.5 233 16.5
2008-12-17 08:06:19 51°13.697 2°55.701 6.4 0.6 232 16.3
2008-12-17 08:06:25 51°13.696 2°55.7 5.9 0.5 229 16.2
2008-12-17 08:06:30 51°13.696 2°55.698 5.2 0.5 234 16.2
2008-12-17 08:06:35 51°13.695 2°55.698 5 0.4 237 16.1
2008-12-17 08:06:39 51°13.695 2°55.697 5.1 0.4 239 16
2008-12-17 08:06:45 51°13.695 2°55.696 5.3 0.3 243 16
2008-12-17 08:06:50 51°13.695 2°55.695 5.6 0.3 244 15.9
2008-12-17 08:06:55 51°13.694 2°55.695 5.6 0.3 236 15.9
2008-12-17 08:06:59 51°13.694 2°55.695 5.7 0.3 238 15.7
2008-12-17 08:07:05 51°13.694 2°55.694 5.7 0.4 232 15.7
2008-12-17 08:07:10 51°13.694 2°55.693 5.7 0.3 232 15.7
2008-12-17 08:07:15 51°13.693 2°55.693 5.4 0.3 232 15.7
2008-12-17 08:07:19 51°13.693 2°55.692 5 0.3 235 15.5
2008-12-17 08:07:25 51°13.693 2°55.692 4.7 0.3 233 15.5
2008-12-17 08:07:30 51°13.692 2°55.691 4.3 0.2 232 15.3
2008-12-17 08:07:35 51°13.692 2°55.691 3.9 0.3 237 15.2
2008-12-17 08:07:39 51°13.692 2°55.69 3.4 0.2 239 15
2008-12-17 08:07:45 51°13.692 2°55.69 3.3 0.2 251 15.1
2008-12-17 08:07:50 51°13.692 2°55.69 3 0.1 272 15.1
2008-12-17 08:07:55 51°13.692 2°55.689 2.8 0.2 286 15.3
2008-12-17 08:07:59 51°13.692 2°55.689 2.4 0.2 329 15.4
2008-12-17 08:08:05 51°13.692 2°55.689 2.4 0.2 321 15.5
2008-12-17 08:08:10 51°13.693 2°55.689 2 0.2 345 15.6
2008-12-17 08:08:15 51°13.693 2°55.689 1.9 0.2 330 15.6
2008-12-17 08:08:19 51°13.693 2°55.689 1.7 0.2 337 15.7
2008-12-17 08:08:24 51°13.694 2°55.689 1.6 0.2 324 15.8
2008-12-17 08:08:30 51°13.694 2°55.689 1.5 0.2 339 15.8
2008-12-17 08:08:35 51°13.694 2°55.689 1.3 0.2 342 15.9
2008-12-17 08:08:39 51°13.694 2°55.688 1.2 0.2 342 16
2008-12-17 08:08:44 51°13.694 2°55.688 1 0.2 336 16
2008-12-17 08:08:50 51°13.694 2°55.688 0.9 0.2 346 16.1
2008-12-17 08:08:55 51°13.694 2°55.688 0.8 0.2 339 16.1
2008-12-17 08:09:00 51°13.694 2°55.687 0.5 0.2 346 16.2
2008-12-17 08:09:04 51°13.694 2°55.687 0.3 0.2 337 16.3
2008-12-17 08:09:10 51°13.694 2°55.687 0.1 0.1 336 16.3
2008-12-17 08:09:15 51°13.695 2°55.687 359.9 0.2 334 16.4
2008-12-17 08:09:20 51°13.695 2°55.687 359.6 0.2 347 16.4
2008-12-17 08:09:25 51°13.696 2°55.687 359.5 0.3 350 16.4
2008-12-17 08:09:30 51°13.697 2°55.687 359.2 0.2 336 16.4
2008-12-17 08:09:35 51°13.697 2°55.687 359.1 0.2 332 16.5
2008-12-17 08:09:40 51°13.697 2°55.687 358.9 0.2 333 16.4
2008-12-17 08:09:45 51°13.697 2°55.687 358.8 0.2 327 16.3
2008-12-17 08:09:50 51°13.697 2°55.686 358.7 0.2 320 16.2
2008-12-17 08:09:55 51°13.697 2°55.686 358.4 0.2 318 16.1
2008-12-17 08:10:00 51°13.697 2°55.686 358.3 0.2 298 16
2008-12-17 08:10:04 51°13.697 2°55.686 358.1 0.1 311 16
2008-12-17 08:10:10 51°13.697 2°55.685 358 0.2 301 16
2008-12-17 08:10:15 51°13.697 2°55.685 357.8 0.1 299 15.9
2008-12-17 08:10:20 51°13.697 2°55.684 357.6 0.2 292 15.9
2008-12-17 08:10:24 51°13.697 2°55.684 357.6 0.1 307 15.9
2008-12-17 08:10:30 51°13.698 2°55.684 357.6 0.2 295 15.8
2008-12-17 08:10:35 51°13.699 2°55.684 357.6 0.2 319 15.8
2008-12-17 08:10:39 51°13.699 2°55.684 357.6 0.2 301 15.8
2008-12-17 08:10:44 51°13.699 2°55.683 357.6 0.2 319 15.5
2008-12-17 08:10:50 51°13.699 2°55.683 357.4 0.2 307 15.7
2008-12-17 08:10:55 51°13.699 2°55.683 357.3 0.2 308 15.2
2008-12-17 08:11:00 51°13.7 2°55.682 357 0.2 315 14.3
2008-12-17 08:11:04 51°13.7 2°55.682 356.6 0.3 336 15
2008-12-17 08:11:10 51°13.7 2°55.681 356.1 0.3 318 14.2
2008-12-17 08:11:15 51°13.7 2°55.681 355.7 0.3 330 14.2
2008-12-17 08:11:20 51°13.7 2°55.68 355.2 0.3 325 14.2
2008-12-17 08:11:24 51°13.7 2°55.68 354.6 0.3 325 14.2
2008-12-17 08:11:30 51°13.7 2°55.679 354.2 0.3 329 14
2008-12-17 08:11:35 51°13.701 2°55.679 353.6 0.4 338 13.8
2008-12-17 08:11:40 51°13.701 2°55.678 353.1 0.3 330 13.7
2008-12-17 08:11:45 51°13.702 2°55.678 352.6 0.3 331 13.5
2008-12-17 08:11:50 51°13.702 2°55.678 352.1 0.4 339 13.3
2008-12-17 08:11:55 51°13.703 2°55.678 351.6 0.5 341 13.1
2008-12-17 08:12:00 51°13.704 2°55.678 351.3 0.5 345 12.8
2008-12-17 08:12:04 51°13.705 2°55.678 351 0.7 346 12.5
2008-12-17 08:12:10 51°13.705 2°55.677 350.8 0.7 349 12.4
2008-12-17 08:12:15 51°13.706 2°55.676 350.8 0.9 346 12.3
2008-12-17 08:12:20 51°13.708 2°55.676 350.8 1 350 12.2
2008-12-17 08:12:24 51°13.709 2°55.676 351.4 1.1 349 12.3
2008-12-17 08:12:30 51°13.712 2°55.675 352 1.7 350 12.2
2008-12-17 08:12:35 51°13.715 2°55.674 353 2.6 349 12.1
2008-12-17 08:12:39 51°13.718 2°55.673 354.5 3.1 352 11.7
2008-12-17 08:12:44 51°13.723 2°55.672 355.1 3.8 351 11.3
2008-12-17 08:12:50 51°13.731 2°55.67 354.3 4.5 351 11.2
2008-12-17 08:12:55 51°13.737 2°55.668 353.7 5.1 351 10.8
2008-12-17 08:13:00 51°13.745 2°55.666 353.6 5.5 350 10.5
2008-12-17 08:13:05 51°13.753 2°55.664 353.5 5.9 351 10.4
2008-12-17 08:13:10 51°13.762 2°55.662 353.5 6.4 350 10.4
2008-12-17 08:13:15 51°13.771 2°55.66 353.8 6.7 351 10.2
2008-12-17 08:13:20 51°13.78 2°55.657 353.8 7 350 10.4
2008-12-17 08:13:25 51°13.79 2°55.654 352.6 7.3 349 10.3
2008-12-17 08:13:30 51°13.801 2°55.65 350.8 7.7 347 10.3
2008-12-17 08:13:35 51°13.812 2°55.646 348.8 8 346 10.2
2008-12-17 08:13:40 51°13.823 2°55.641 347.6 8.2 345 10.2
2008-12-17 08:13:45 51°13.834 2°55.637 346.9 8.4 345 10
2008-12-17 08:13:50 51°13.846 2°55.631 346.1 8.6 344 9.8
2008-12-17 08:13:55 51°13.857 2°55.626 345.4 8.7 343 10
2008-12-17 08:14:00 51°13.868 2°55.62 344.6 8.5 343 9.5
2008-12-17 08:14:05 51°13.879 2°55.615 343.8 8.2 343 9.7
2008-12-17 08:14:10 51°13.89 2°55.61 342.9 7.8 342 9.8
2008-12-17 08:14:15 51°13.9 2°55.604 342.1 7.6 341 10
2008-12-17 08:14:20 51°13.91 2°55.599 341.2 7.4 340 10.1
2008-12-17 08:14:25 51°13.919 2°55.593 339.9 7.2 339 10
2008-12-17 08:14:30 51°13.928 2°55.587 339 6.9 338 10.1
2008-12-17 08:14:35 51°13.937 2°55.582 338.2 6.8 338 10.1
2008-12-17 08:14:40 51°13.945 2°55.576 337.5 6.7 338 10.2
2008-12-17 08:14:45 51°13.953 2°55.57 337 6.5 337 10.2
2008-12-17 08:14:50 51°13.961 2°55.564 336.8 6.4 337 10.2
2008-12-17 08:14:55 51°13.97 2°55.559 336.8 6.4 337 10.2
2008-12-17 08:15:00 51°13.978 2°55.553 336.7 6.4 336 10.2
2008-12-17 08:15:05 51°13.986 2°55.548 336.3 6.4 336 10.1
2008-12-17 08:15:10 51°13.994 2°55.542 335.5 6.4 335 10.1
2008-12-17 08:15:15 51°14.002 2°55.536 334.7 6.4 334 10.1
2008-12-17 08:15:20 51°14.01 2°55.529 334.1 6.4 334 10.1
2008-12-17 08:15:25 51°14.018 2°55.523 333.6 6.5 333 10
2008-12-17 08:15:30 51°14.026 2°55.516 333.2 6.6 332 10.1
2008-12-17 08:15:35 51°14.034 2°55.509 332.7 6.7 331 10
2008-12-17 08:15:40 51°14.043 2°55.502 332.3 6.9 332 10
2008-12-17 08:15:45 51°14.051 2°55.494 332.3 7 332 10
2008-12-17 08:15:50 51°14.06 2°55.487 332.9 7.2 333 10.1
2008-12-17 08:15:55 51°14.069 2°55.479 333.4 7.4 332 10
2008-12-17 08:16:00 51°14.079 2°55.472 333.3 7.5 332 10
2008-12-17 08:16:05 51°14.088 2°55.463 332.4 7.7 331 10.1
2008-12-17 08:16:10 51°14.097 2°55.455 331.3 7.9 331 10
2008-12-17 08:16:15 51°14.107 2°55.446 331.2 8.1 331 10
2008-12-17 08:16:20 51°14.117 2°55.437 331.2 8.2 330 10.1
2008-12-17 08:16:25 51°14.127 2°55.428 330.3 8.3 329 10.1
2008-12-17 08:16:30 51°14.137 2°55.418 329.1 8.6 327 10.1
2008-12-17 08:16:35 51°14.147 2°55.407 327.8 8.9 327 10.1
2008-12-17 08:16:40 51°14.158 2°55.396 326.9 9.1 326 10.1
2008-12-17 08:16:45 51°14.168 2°55.384 326.2 9.3 325 10.1
2008-12-17 08:16:50 51°14.179 2°55.372 325.8 9.6 325 10.1
2008-12-17 08:16:55 51°14.19 2°55.359 325.3 9.7 324 10.1
2008-12-17 08:16:59 51°14.199 2°55.349 325 9.8 324 10.7
2008-12-17 08:17:05 51°14.212 2°55.334 324.8 9.9 324 10.2
2008-12-17 08:17:10 51°14.223 2°55.32 324.7 10.1 323 10.2
2008-12-17 08:17:15 51°14.235 2°55.307 324.5 10.2 322 10.2
2008-12-17 08:17:19 51°14.244 2°55.295 323.7 10.2 321 10.2
2008-12-17 08:17:25 51°14.257 2°55.278 321.9 10.4 320 10.1
2008-12-17 08:17:30 51°14.268 2°55.262 319.8 10.5 318 10.2
2008-12-17 08:17:35 51°14.278 2°55.247 319.3 10.6 318 10.2
2008-12-17 08:17:39 51°14.287 2°55.234 319 10.8 317 10
2008-12-17 08:17:45 51°14.3 2°55.214 318.2 11 316 10
2008-12-17 08:17:50 51°14.311 2°55.196 316.5 11.1 313 10.1
2008-12-17 08:17:55 51°14.322 2°55.178 314.5 11.2 312 10.1
2008-12-17 08:17:59 51°14.33 2°55.163 312.5 11.3 311 10.2
2008-12-17 08:18:05 51°14.343 2°55.14 311.2 11.4 311 10.3
2008-12-17 08:18:10 51°14.353 2°55.121 310.9 11.6 310 10.1
2008-12-17 08:18:15 51°14.364 2°55.101 310.8 11.7 310 9.9
2008-12-17 08:18:19 51°14.372 2°55.085 310.8 11.8 310 10
2008-12-17 08:18:25 51°14.385 2°55.061 310.8 11.9 311 10.2
2008-12-17 08:18:30 51°14.396 2°55.041 311.3 12.1 311 10.1
2008-12-17 08:18:35 51°14.407 2°55.021 311.9 12.2 311 10.5
2008-12-17 08:18:39 51°14.415 2°55.004 312.4 12.2 311 10.1
2008-12-17 08:18:45 51°14.429 2°54.98 312.5 12.3 311 9.9
2008-12-17 08:18:50 51°14.44 2°54.959 312.7 12.3 310 10
2008-12-17 08:18:55 51°14.451 2°54.938 312.4 12.3 309 10.1
2008-12-17 08:18:59 51°14.46 2°54.921 312.7 12.3 310 10
2008-12-17 08:19:05 51°14.473 2°54.897 313.7 12.3 310 10
2008-12-17 08:19:10 51°14.485 2°54.876 314.7 12.3 312 9.9
2008-12-17 08:19:15 51°14.496 2°54.856 315.8 12.4 312 9.8
2008-12-17 08:19:19 51°14.506 2°54.84 317.5 12.4 314 9.7
2008-12-17 08:19:25 51°14.52 2°54.817 318.3 12.4 314 9.7
2008-12-17 08:19:30 51°14.532 2°54.798 319.5 12.4 315 9.4
2008-12-17 08:19:35 51°14.544 2°54.778 320 12.4 317 9.4
2008-12-17 08:19:39 51°14.554 2°54.764 321.3 12.4 317 9.4
2008-12-17 08:19:45 51°14.569 2°54.741 322 12.4 317 9.4
2008-12-17 08:19:50 51°14.582 2°54.723 322.7 12.4 318 9.3
2008-12-17 08:19:55 51°14.595 2°54.705 323.4 12.4 320 9.2
2008-12-17 08:19:59 51°14.605 2°54.691 324.2 12.4 319 9.3
2008-12-17 08:20:05 51°14.621 2°54.67 324.9 12.4 321 9.2
2008-12-17 08:20:10 51°14.634 2°54.653 326.2 12.4 321 9.3
2008-12-17 08:20:15 51°14.648 2°54.636 326.5 12.4 321 9.2
2008-12-17 08:20:19 51°14.658 2°54.622 326.9 12.4 321 9.2
2008-12-17 08:20:25 51°14.674 2°54.601 326.9 12.4 321 9.3
2008-12-17 08:20:30 51°14.688 2°54.584 326.9 12.4 321 9.3
2008-12-17 08:20:35 51°14.701 2°54.567 327.1 12.4 321 9.2
2008-12-17 08:20:39 51°14.712 2°54.553 326.9 12.4 321 9.4
2008-12-17 08:20:44 51°14.725 2°54.535 326.8 12.4 320 9.3
2008-12-17 08:20:50 51°14.74 2°54.514 326.2 12.4 320 9.3
2008-12-17 08:20:55 51°14.754 2°54.497 326.2 12.4 321 9.2
2008-12-17 08:21:00 51°14.767 2°54.48 326.8 12.3 322 9.2
2008-12-17 08:21:05 51°14.78 2°54.463 327.6 12.3 322 9.2
2008-12-17 08:21:10 51°14.794 2°54.446 327.5 12.3 322 9.3
2008-12-17 08:21:15 51°14.807 2°54.43 327.9 12.3 323 9.2
2008-12-17 08:21:20 51°14.821 2°54.413 328.3 12.3 323 8.9
2008-12-17 08:21:25 51°14.835 2°54.397 328.7 12.3 323 9
2008-12-17 08:21:30 51°14.848 2°54.381 329.1 12.2 323 9
2008-12-17 08:21:35 51°14.862 2°54.365 329 12.3 322 8.9
2008-12-17 08:21:40 51°14.875 2°54.348 328.3 12.2 322 8.8
2008-12-17 08:21:45 51°14.888 2°54.331 327.6 12.2 321 8.7
2008-12-17 08:21:50 51°14.902 2°54.315 327.4 12.2 323 8.5
2008-12-17 08:21:55 51°14.915 2°54.298 327.8 12.1 323 8.3
2008-12-17 08:22:00 51°14.928 2°54.282 328.1 12.1 323 8.2
2008-12-17 08:22:05 51°14.942 2°54.265 327.4 12.1 321 8.1
2008-12-17 08:22:10 51°14.955 2°54.249 326.9 12.1 322 8.1
2008-12-17 08:22:15 51°14.968 2°54.232 326.9 12.1 322 8
2008-12-17 08:22:20 51°14.981 2°54.216 326.9 12.1 323 8
2008-12-17 08:22:25 51°14.994 2°54.2 327.6 12.1 322 8.1
2008-12-17 08:22:30 51°15.008 2°54.184 327.7 12.1 322 7.9
2008-12-17 08:22:35 51°15.021 2°54.167 327.2 12.1 321 8
2008-12-17 08:22:40 51°15.034 2°54.15 326.5 12.1 321 8
2008-12-17 08:22:45 51°15.047 2°54.133 325.8 12.2 321 8
2008-12-17 08:22:50 51°15.06 2°54.116 325.6 12.2 321 8.1
2008-12-17 08:22:55 51°15.073 2°54.099 325.7 12.2 321 8.2
2008-12-17 08:23:00 51°15.086 2°54.082 326.2 12.2 322 8.3
2008-12-17 08:23:05 51°15.099 2°54.065 326.2 12.2 321 8.4
2008-12-17 08:23:10 51°15.113 2°54.048 325.5 12.3 321 8.5
2008-12-17 08:23:15 51°15.126 2°54.031 325.2 12.3 321 8.6
2008-12-17 08:23:20 51°15.139 2°54.014 325.4 12.3 321 8.6
2008-12-17 08:23:25 51°15.152 2°53.997 325.4 12.3 321 8.6
2008-12-17 08:23:30 51°15.165 2°53.979 325.5 12.3 320 8.6
2008-12-17 08:23:35 51°15.178 2°53.962 325.2 12.2 321 8.6
2008-12-17 08:23:40 51°15.191 2°53.945 325.2 12.2 320 8.7
2008-12-17 08:23:45 51°15.205 2°53.928 325.1 12.2 321 8.6
2008-12-17 08:23:50 51°15.218 2°53.91 324.9 12.2 320 8.6
2008-12-17 08:23:55 51°15.231 2°53.893 324.8 12.2 321 8.7
2008-12-17 08:24:00 51°15.244 2°53.877 325.1 12.2 321 8.7
2008-12-17 08:24:05 51°15.257 2°53.859 325.3 12.2 321 8.8
2008-12-17 08:24:10 51°15.27 2°53.843 325.6 12.3 322 8.8
2008-12-17 08:24:15 51°15.284 2°53.826 325.8 12.3 321 8.9
2008-12-17 08:24:20 51°15.297 2°53.809 325.8 12.3 322 9
2008-12-17 08:24:25 51°15.31 2°53.792 326 12.3 322 9
2008-12-17 08:24:30 51°15.324 2°53.776 326.3 12.3 322 9.1
2008-12-17 08:24:35 51°15.337 2°53.759 326.3 12.3 322 9.2
2008-12-17 08:24:40 51°15.351 2°53.742 326.6 12.3 322 9.2
2008-12-17 08:24:45 51°15.365 2°53.726 327 12.3 324 9.4
2008-12-17 08:24:50 51°15.378 2°53.71 327.7 12.3 324 9.4
2008-12-17 08:24:55 51°15.393 2°53.695 328.4 12.3 325 9.4
2008-12-17 08:25:00 51°15.406 2°53.679 329 12.3 324 9.4
2008-12-17 08:25:05 51°15.421 2°53.663 329.5 12.3 325 9.6
2008-12-17 08:25:10 51°15.435 2°53.648 329.7 12.4 325 9.7
2008-12-17 08:25:15 51°15.449 2°53.632 329.8 12.4 325 9.7
2008-12-17 08:25:20 51°15.463 2°53.616 329.8 12.4 325 9.5
2008-12-17 08:25:25 51°15.477 2°53.601 329.8 12.4 325 9.5
2008-12-17 08:25:30 51°15.491 2°53.585 329.7 12.4 324 9.6
2008-12-17 08:25:35 51°15.504 2°53.569 329.7 12.4 325 9.9
2008-12-17 08:25:40 51°15.518 2°53.553 329.8 12.4 325 10.1
2008-12-17 08:25:45 51°15.532 2°53.537 329.8 12.4 325 10
2008-12-17 08:25:50 51°15.546 2°53.521 330 12.4 324 9.7
2008-12-17 08:25:55 51°15.56 2°53.505 330 12.4 324 9.9
2008-12-17 08:26:00 51°15.574 2°53.489 329.3 12.4 324 10.1
2008-12-17 08:26:05 51°15.588 2°53.472 329.2 12.4 324 10.1
2008-12-17 08:26:10 51°15.602 2°53.456 329.4 12.4 324 10.2
2008-12-17 08:26:15 51°15.616 2°53.44 329.4 12.5 323 10.2
2008-12-17 08:26:20 51°15.63 2°53.423 329 12.5 323 10.3
2008-12-17 08:26:25 51°15.643 2°53.406 328.5 12.5 323 10.1
2008-12-17 08:26:30 51°15.657 2°53.39 328.8 12.5 323 10.4
2008-12-17 08:26:35 51°15.671 2°53.374 329 12.5 323 10.3
2008-12-17 08:26:40 51°15.685 2°53.357 329 12.5 323 10.3
2008-12-17 08:26:45 51°15.698 2°53.34 329 12.5 323 10.2
2008-12-17 08:26:50 51°15.712 2°53.323 329.1 12.4 322 10.3
2008-12-17 08:26:55 51°15.726 2°53.307 329 12.4 322 10.6
2008-12-17 08:27:00 51°15.739 2°53.289 328.3 12.4 322 10.7
2008-12-17 08:27:05 51°15.753 2°53.273 328.3 12.4 322 10.8
2008-12-17 08:27:10 51°15.766 2°53.256 328.4 12.4 322 10.5
2008-12-17 08:27:15 51°15.78 2°53.239 328.2 12.4 321 10.6
2008-12-17 08:27:20 51°15.793 2°53.222 327.9 12.4 322 10.7
2008-12-17 08:27:25 51°15.807 2°53.205 327.9 12.4 322 10.7
2008-12-17 08:27:30 51°15.821 2°53.188 328 12.4 322 10.7
2008-12-17 08:27:35 51°15.834 2°53.171 328 12.4 321 10.8
2008-12-17 08:27:40 51°15.848 2°53.154 327.8 12.4 322 10.8
2008-12-17 08:27:45 51°15.861 2°53.137 327.8 12.4 322 10.9
2008-12-17 08:27:50 51°15.874 2°53.12 327.7 12.4 322 10.8
2008-12-17 08:27:55 51°15.888 2°53.103 327.7 12.4 321 10.9
2008-12-17 08:28:00 51°15.901 2°53.086 327.6 12.4 321 10.9
2008-12-17 08:28:05 51°15.915 2°53.069 327.5 12.4 321 10.9
2008-12-17 08:28:10 51°15.928 2°53.052 327.6 12.4 321 11
2008-12-17 08:28:15 51°15.941 2°53.034 327.6 12.4 321 11
2008-12-17 08:28:20 51°15.955 2°53.017 327.6 12.4 321 11.1
2008-12-17 08:28:25 51°15.968 2°53 327.6 12.4 321 11
2008-12-17 08:28:30 51°15.981 2°52.983 327.3 12.4 321 11.1
2008-12-17 08:28:35 51°15.995 2°52.965 327.2 12.4 321 11.2
2008-12-17 08:28:40 51°16.008 2°52.948 327 12.4 321 11.2
2008-12-17 08:28:45 51°16.022 2°52.931 327 12.4 321 11.2
2008-12-17 08:28:50 51°16.035 2°52.914 327.4 12.4 322 11.2
2008-12-17 08:28:55 51°16.048 2°52.896 327.6 12.4 321 11.3
2008-12-17 08:29:00 51°16.062 2°52.879 327.6 12.4 322 11.3
2008-12-17 08:29:04 51°16.073 2°52.866 327.6 12.4 322 11.3
2008-12-17 08:29:10 51°16.089 2°52.846 327.7 12.4 322 11.3
2008-12-17 08:29:15 51°16.102 2°52.828 327.6 12.4 321 11.3
2008-12-17 08:29:20 51°16.116 2°52.811 327.4 12.4 322 11.3
2008-12-17 08:29:24 51°16.126 2°52.797 327.2 12.5 321 11.2
2008-12-17 08:29:30 51°16.143 2°52.777 327.2 12.4 322 11.3
2008-12-17 08:29:35 51°16.156 2°52.76 327.4 12.4 321 11.3
2008-12-17 08:29:40 51°16.17 2°52.743 327.2 12.4 322 11.4
2008-12-17 08:29:44 51°16.18 2°52.729 327.2 12.5 322 11.4
2008-12-17 08:29:50 51°16.197 2°52.709 327.3 12.4 322 11.3
2008-12-17 08:29:55 51°16.21 2°52.691 327.5 12.5 322 11.3
2008-12-17 08:30:00 51°16.224 2°52.674 327.5 12.5 322 11.4
2008-12-17 08:30:05 51°16.237 2°52.657 327.2 12.5 322 11.4
2008-12-17 08:30:10 51°16.251 2°52.64 327.5 12.5 322 11.4
2008-12-17 08:30:15 51°16.265 2°52.623 327.6 12.5 322 11.5
2008-12-17 08:30:20 51°16.278 2°52.606 327.4 12.5 322 11.4
2008-12-17 08:30:24 51°16.289 2°52.592 327.2 12.5 322 11.4
2008-12-17 08:30:30 51°16.305 2°52.571 327 12.5 321 11.4
2008-12-17 08:30:35 51°16.319 2°52.554 326.9 12.5 322 11.5
2008-12-17 08:30:39 51°16.33 2°52.54 327.2 12.5 322 11.4
2008-12-17 08:30:44 51°16.343 2°52.523 327.3 12.5 322 11.4
2008-12-17 08:30:50 51°16.36 2°52.503 327.6 12.5 322 11.3
2008-12-17 08:30:55 51°16.374 2°52.485 327.6 12.5 322 11.3
2008-12-17 08:31:00 51°16.387 2°52.468 327.6 12.5 322 11.2
2008-12-17 08:31:04 51°16.398 2°52.455 327.6 12.5 322 11.2
2008-12-17 08:31:10 51°16.415 2°52.434 327.5 12.6 322 11.2
2008-12-17 08:31:15 51°16.428 2°52.417 327.5 12.6 322 11.3
2008-12-17 08:31:20 51°16.442 2°52.4 327.6 12.6 322 11.1
2008-12-17 08:31:25 51°16.456 2°52.383 327.6 12.6 322 11.3
2008-12-17 08:31:30 51°16.47 2°52.366 327.5 12.6 322 11.3
2008-12-17 08:31:35 51°16.483 2°52.349 327.6 12.6 323 10.9
2008-12-17 08:31:40 51°16.497 2°52.333 328.5 12.5 324 10.8
2008-12-17 08:31:45 51°16.512 2°52.316 329 12.5 324 10.8
2008-12-17 08:31:50 51°16.525 2°52.3 328.6 12.5 323 10.7
2008-12-17 08:31:55 51°16.539 2°52.283 327.9 12.5 322 10.4
2008-12-17 08:32:00 51°16.553 2°52.266 327.4 12.5 322 10.3
2008-12-17 08:32:05 51°16.566 2°52.249 326.8 12.5 322 10.2
2008-12-17 08:32:10 51°16.58 2°52.232 326.7 12.5 322 9.9
2008-12-17 08:32:15 51°16.594 2°52.215 326.7 12.4 322 9.9
2008-12-17 08:32:20 51°16.607 2°52.198 326.4 12.4 322 9.8
2008-12-17 08:32:25 51°16.621 2°52.182 326.9 12.4 323 9.8
2008-12-17 08:32:30 51°16.635 2°52.165 327.5 12.4 324 9.7
2008-12-17 08:32:35 51°16.649 2°52.149 328.6 12.4 325 9.6
2008-12-17 08:32:40 51°16.663 2°52.134 329.3 12.4 325 9.6
2008-12-17 08:32:45 51°16.677 2°52.119 330.3 12.3 327 9.6
2008-12-17 08:32:50 51°16.692 2°52.104 331.2 12.3 327 9.6
2008-12-17 08:32:55 51°16.706 2°52.09 331.6 12.3 328 9.6
2008-12-17 08:33:00 51°16.721 2°52.076 332.4 12.4 329 9.7
2008-12-17 08:33:05 51°16.736 2°52.062 333.4 12.3 330 9.8
2008-12-17 08:33:10 51°16.751 2°52.049 334.9 12.3 331 9.7
2008-12-17 08:33:15 51°16.766 2°52.036 336 12.3 333 9.7
2008-12-17 08:33:20 51°16.781 2°52.024 336.9 12.3 333 9.7
2008-12-17 08:33:25 51°16.797 2°52.012 337.5 12.3 334 9.8
2008-12-17 08:33:30 51°16.812 2°52 338.5 12.3 334 9.7
2008-12-17 08:33:35 51°16.827 2°51.988 338.5 12.3 334 9.8
2008-12-17 08:33:40 51°16.843 2°51.976 338.8 12.3 335 9.8
2008-12-17 08:33:45 51°16.858 2°51.965 339.4 12.2 335 9.7
2008-12-17 08:33:50 51°16.873 2°51.954 339.7 12.3 335 9.5
2008-12-17 08:33:55 51°16.889 2°51.942 339.9 12.2 335 9.6
2008-12-17 08:34:00 51°16.904 2°51.932 340 12.2 335 9.3
2008-12-17 08:34:05 51°16.92 2°51.92 339.9 12.1 335 9.2
2008-12-17 08:34:10 51°16.935 2°51.909 339.9 12.1 335 9.3
2008-12-17 08:34:15 51°16.95 2°51.898 339.9 12.2 335 9.5
2008-12-17 08:34:20 51°16.966 2°51.886 339.6 12.2 335 9.7
2008-12-17 08:34:25 51°16.981 2°51.876 340.4 12.2 337 10
2008-12-17 08:34:30 51°16.997 2°51.865 341 12.2 336 10
2008-12-17 08:34:35 51°17.012 2°51.854 340.7 12.2 336 10.1
2008-12-17 08:34:40 51°17.028 2°51.842 340.6 12.2 335 10.2
2008-12-17 08:34:45 51°17.043 2°51.831 339.9 12.2 335 10.2
2008-12-17 08:34:50 51°17.059 2°51.82 339.9 12.2 336 10.2
2008-12-17 08:34:55 51°17.074 2°51.809 340.3 12.2 336 10.2
2008-12-17 08:35:00 51°17.089 2°51.797 340.3 12.1 336 10.2
2008-12-17 08:35:05 51°17.105 2°51.786 339.9 12.2 335 10.3
2008-12-17 08:35:10 51°17.12 2°51.775 339.6 12.2 336 10.3
2008-12-17 08:35:15 51°17.135 2°51.764 339.9 12.2 335 10.4
2008-12-17 08:35:20 51°17.151 2°51.753 339.9 12.2 336 10.3
2008-12-17 08:35:25 51°17.166 2°51.743 341.4 12.1 338 10.2
2008-12-17 08:35:30 51°17.182 2°51.732 342.1 12.1 338 10.2
2008-12-17 08:35:35 51°17.198 2°51.723 342.7 12.1 339 10.3
2008-12-17 08:35:40 51°17.213 2°51.714 343.6 12.1 340 10.4
2008-12-17 08:35:45 51°17.229 2°51.704 344 12.1 339 10.5
2008-12-17 08:35:50 51°17.245 2°51.696 344.3 12.1 341 10.4
2008-12-17 08:35:55 51°17.261 2°51.686 344.6 12.1 340 10.4
2008-12-17 08:36:00 51°17.277 2°51.678 344.5 12.1 340 10.3
2008-12-17 08:36:05 51°17.292 2°51.669 344.5 12.1 341 10.3
2008-12-17 08:36:10 51°17.308 2°51.66 344.5 12.2 340 10.2
2008-12-17 08:36:15 51°17.324 2°51.651 344.5 12.1 341 10.3
2008-12-17 08:36:20 51°17.34 2°51.642 344.6 12 342 10.2
2008-12-17 08:36:25 51°17.356 2°51.636 347.4 12 347 10.1
2008-12-17 08:36:30 51°17.373 2°51.631 350.3 11.9 347 9.7
2008-12-17 08:36:35 51°17.389 2°51.626 352.3 11.9 350 9.3
2008-12-17 08:36:40 51°17.405 2°51.621 354.1 11.9 350 8.9
2008-12-17 08:36:45 51°17.421 2°51.618 355.2 11.8 352 8.9
2008-12-17 08:36:50 51°17.438 2°51.615 356.7 11.8 353 9.7
2008-12-17 08:36:55 51°17.454 2°51.612 358.2 11.9 355 9.5
2008-12-17 08:37:00 51°17.47 2°51.61 359.5 11.9 355 9
2008-12-17 08:37:05 51°17.487 2°51.608 359.9 11.8 355 9.2
2008-12-17 08:37:10 51°17.503 2°51.606 0.3 11.8 357 9.3
2008-12-17 08:37:15 51°17.52 2°51.604 1 11.8 355 9.1
2008-12-17 08:37:20 51°17.536 2°51.603 1 11.8 357 9.1
2008-12-17 08:37:25 51°17.553 2°51.6 1.3 11.8 355 9.2
2008-12-17 08:37:30 51°17.569 2°51.599 1 11.8 357 9
2008-12-17 08:37:35 51°17.585 2°51.597 1.4 11.7 356 9
2008-12-17 08:37:40 51°17.601 2°51.595 1 11.8 356 9
2008-12-17 08:37:45 51°17.618 2°51.594 1 11.8 356 9.1
2008-12-17 08:37:50 51°17.634 2°51.592 1.5 11.8 356 8.9
2008-12-17 08:37:55 51°17.651 2°51.591 2.4 11.8 358 9
2008-12-17 08:37:59 51°17.664 2°51.59 3.1 11.8 357 9.1
2008-12-17 08:38:05 51°17.683 2°51.59 3.7 11.8 359 9.1
2008-12-17 08:38:10 51°17.7 2°51.588 3.9 11.8 356 9.1
2008-12-17 08:38:15 51°17.716 2°51.587 3.2 11.8 358 9.1
2008-12-17 08:38:19 51°17.729 2°51.585 2.1 11.9 354 9.1
2008-12-17 08:38:25 51°17.749 2°51.584 1.8 11.8 358 9.2
2008-12-17 08:38:30 51°17.765 2°51.582 2.4 11.9 357 9.2
2008-12-17 08:38:35 51°17.782 2°51.581 2.4 11.8 357 9.2
2008-12-17 08:38:39 51°17.795 2°51.579 2.8 11.8 357 9.2
2008-12-17 08:38:45 51°17.815 2°51.578 3 11.9 357 9.3
2008-12-17 08:38:50 51°17.831 2°51.577 2.6 11.8 358 9.3
2008-12-17 08:38:55 51°17.848 2°51.575 3 11.8 357 9.4
2008-12-17 08:38:59 51°17.861 2°51.574 2.7 11.9 357 9.4
2008-12-17 08:39:05 51°17.881 2°51.573 3 11.9 357 9.6
2008-12-17 08:39:10 51°17.897 2°51.572 3.4 11.9 358 9.5
2008-12-17 08:39:15 51°17.914 2°51.572 4 11.9 358 9.6
2008-12-17 08:39:19 51°17.927 2°51.57 3.9 11.9 357 9.7
2008-12-17 08:39:25 51°17.946 2°51.57 3.9 11.9 359 9.7
2008-12-17 08:39:30 51°17.963 2°51.569 3.9 11.9 358 9.8
2008-12-17 08:39:35 51°17.98 2°51.569 4.5 11.9 -999 9.9
2008-12-17 08:39:39 51°17.993 2°51.568 4.7 11.9 359 9.9
2008-12-17 08:39:45 51°18.013 2°51.568 5.5 11.9 -999 9.9
2008-12-17 08:39:50 51°18.029 2°51.568 5.9 11.9 -999 9.9
2008-12-17 08:39:55 51°18.046 2°51.567 5.7 11.9 359 10.1
2008-12-17 08:39:59 51°18.059 2°51.567 5.3 11.9 359 10.3
2008-12-17 08:40:05 51°18.079 2°51.566 5.3 11.9 358 10.2
2008-12-17 08:40:10 51°18.095 2°51.565 4.9 11.9 358 10.3
2008-12-17 08:40:15 51°18.112 2°51.564 4.7 11.9 358 10.4
2008-12-17 08:40:19 51°18.125 2°51.563 4.7 11.9 357 10.4
2008-12-17 08:40:25 51°18.145 2°51.561 3.3 11.9 356 10.6
2008-12-17 08:40:30 51°18.161 2°51.56 3 11.8 357 10.6
2008-12-17 08:40:35 51°18.178 2°51.559 4 11.8 357 10.8
2008-12-17 08:40:39 51°18.191 2°51.558 3.9 11.8 357 10.7
2008-12-17 08:40:45 51°18.21 2°51.557 4.2 11.8 359 10.8
2008-12-17 08:40:50 51°18.227 2°51.556 4.6 11.8 358 10.9
2008-12-17 08:40:55 51°18.243 2°51.556 4.6 11.8 359 11
2008-12-17 08:40:59 51°18.256 2°51.555 4.5 11.8 358 11.1
2008-12-17 08:41:05 51°18.276 2°51.554 4 11.7 358 11.1
2008-12-17 08:41:10 51°18.292 2°51.552 4.1 11.8 356 11.3
2008-12-17 08:41:15 51°18.308 2°51.551 3.5 11.7 357 11.3
2008-12-17 08:41:19 51°18.321 2°51.549 3.8 11.8 357 11.3
2008-12-17 08:41:25 51°18.341 2°51.548 3.9 11.8 358 11.4
2008-12-17 08:41:30 51°18.357 2°51.547 4.3 11.8 357 11.5
2008-12-17 08:41:35 51°18.374 2°51.546 4.2 11.8 358 11.6
2008-12-17 08:41:39 51°18.387 2°51.545 4.1 11.8 357 11.7
2008-12-17 08:41:45 51°18.407 2°51.543 4.2 11.8 357 11.7
2008-12-17 08:41:50 51°18.423 2°51.542 4.1 11.8 357 11.7
2008-12-17 08:41:55 51°18.439 2°51.54 4 11.8 357 12
2008-12-17 08:41:59 51°18.452 2°51.539 3.9 11.8 356 12
2008-12-17 08:42:04 51°18.468 2°51.537 3.5 11.9 356 12.2
2008-12-17 08:42:10 51°18.488 2°51.535 3.5 11.9 356 12.2
2008-12-17 08:42:15 51°18.505 2°51.533 2.7 11.9 355 12.1
2008-12-17 08:42:20 51°18.521 2°51.531 2.7 11.9 356 12.3
2008-12-17 08:42:25 51°18.538 2°51.529 3.2 11.9 356 12.3
2008-12-17 08:42:30 51°18.554 2°51.528 3.2 11.9 356 12.5
2008-12-17 08:42:35 51°18.571 2°51.525 3 11.9 355 12.5
2008-12-17 08:42:40 51°18.587 2°51.523 2.6 11.9 356 12.5
2008-12-17 08:42:45 51°18.603 2°51.521 2.4 11.9 354 12.7
2008-12-17 08:42:50 51°18.62 2°51.518 1.7 11.9 354 12.7
2008-12-17 08:42:55 51°18.636 2°51.515 1.3 11.9 354 12.9
2008-12-17 08:43:00 51°18.653 2°51.513 1.7 11.9 355 12.9
2008-12-17 08:43:05 51°18.669 2°51.511 2 11.9 355 12.9
2008-12-17 08:43:10 51°18.685 2°51.509 2.7 11.9 355 13.1
2008-12-17 08:43:15 51°18.702 2°51.507 2.8 11.9 355 13.1
2008-12-17 08:43:20 51°18.718 2°51.505 3 11.9 356 13.1
2008-12-17 08:43:25 51°18.735 2°51.503 3.3 11.9 356 13.2
2008-12-17 08:43:30 51°18.752 2°51.501 3.3 11.9 356 13.3
2008-12-17 08:43:35 51°18.768 2°51.499 3.2 11.9 357 13.4
2008-12-17 08:43:40 51°18.785 2°51.498 4.6 11.9 358 13.4
2008-12-17 08:43:45 51°18.801 2°51.496 4.7 11.9 357 13.5
2008-12-17 08:43:50 51°18.818 2°51.495 4.4 11.9 357 13.5
2008-12-17 08:43:55 51°18.834 2°51.494 4.6 11.9 358 13.5
2008-12-17 08:44:00 51°18.851 2°51.494 5.5 11.9 358 13.6
2008-12-17 08:44:05 51°18.867 2°51.493 5.3 11.9 358 13.6
2008-12-17 08:44:10 51°18.883 2°51.492 5.8 11.9 358 13.8
2008-12-17 08:44:15 51°18.9 2°51.492 5.9 11.9 359 13.9
2008-12-17 08:44:20 51°18.916 2°51.491 6.1 11.9 358 13.9
2008-12-17 08:44:25 51°18.933 2°51.49 6 11.9 359 13.8
2008-12-17 08:44:30 51°18.949 2°51.489 6 11.9 358 14
2008-12-17 08:44:35 51°18.966 2°51.489 6.1 11.9 359 13.7
2008-12-17 08:44:40 51°18.982 2°51.488 6.2 11.9 358 13.6
2008-12-17 08:44:45 51°18.998 2°51.487 5.7 11.8 358 14
2008-12-17 08:44:50 51°19.015 2°51.486 5.3 11.9 357 14.3
2008-12-17 08:44:55 51°19.032 2°51.485 5.1 11.8 358 14.3
2008-12-17 08:45:00 51°19.048 2°51.484 5.6 11.9 358 14.3
2008-12-17 08:45:05 51°19.065 2°51.484 5.7 11.9 359 14.3
2008-12-17 08:45:10 51°19.081 2°51.483 5.9 11.9 358 14.4
2008-12-17 08:45:15 51°19.098 2°51.482 6.1 11.9 359 14.5
2008-12-17 08:45:20 51°19.114 2°51.481 5.7 12 358 14.6
2008-12-17 08:45:25 51°19.131 2°51.48 4.9 11.9 357 14.6
2008-12-17 08:45:30 51°19.147 2°51.479 4.8 12 358 14.5
2008-12-17 08:45:35 51°19.164 2°51.477 4.9 12 357 14.5
2008-12-17 08:45:40 51°19.18 2°51.477 5.3 12 358 14.7
2008-12-17 08:45:45 51°19.197 2°51.476 5.6 11.9 358 14.5
2008-12-17 08:45:50 51°19.214 2°51.475 5.7 11.9 358 14.6
2008-12-17 08:45:55 51°19.23 2°51.474 5.8 12 357 14.5
2008-12-17 08:46:00 51°19.247 2°51.472 4.7 12 356 14.6
2008-12-17 08:46:05 51°19.263 2°51.471 4 12 357 14.5
2008-12-17 08:46:10 51°19.28 2°51.47 4.6 12 357 14.6
2008-12-17 08:46:15 51°19.296 2°51.468 5.2 12 358 14.6
2008-12-17 08:46:20 51°19.313 2°51.468 5.5 12 358 14.6
2008-12-17 08:46:25 51°19.33 2°51.467 5.7 12 358 14.5
2008-12-17 08:46:30 51°19.347 2°51.466 5.8 12 358 14.6
2008-12-17 08:46:35 51°19.363 2°51.465 5.7 12.1 357 14.5
2008-12-17 08:46:40 51°19.38 2°51.464 5.4 12.1 359 14.5
2008-12-17 08:46:45 51°19.397 2°51.463 5.9 12 359 14.5
2008-12-17 08:46:50 51°19.413 2°51.462 6 12 357 14.6
2008-12-17 08:46:55 51°19.43 2°51.461 4.9 12.1 357 14.4
2008-12-17 08:47:00 51°19.447 2°51.46 4.5 12.1 357 14.4
2008-12-17 08:47:05 51°19.463 2°51.458 4.3 12.1 357 14.4
2008-12-17 08:47:10 51°19.48 2°51.457 4.6 12.1 358 14.4
2008-12-17 08:47:15 51°19.497 2°51.456 5.5 12.1 358 14.4
2008-12-17 08:47:20 51°19.514 2°51.456 5.7 12.1 358 14.4
2008-12-17 08:47:25 51°19.53 2°51.455 6.1 12.1 359 14.4
2008-12-17 08:47:30 51°19.547 2°51.454 6 12.1 359 14.5
2008-12-17 08:47:35 51°19.564 2°51.453 5.5 12.1 357 14.3
2008-12-17 08:47:40 51°19.581 2°51.452 5 12.1 358 14.3
2008-12-17 08:47:45 51°19.597 2°51.45 4.6 12.1 357 14.3
2008-12-17 08:47:50 51°19.614 2°51.45 4.7 12 358 14.3
2008-12-17 08:47:55 51°19.63 2°51.448 5.3 12 357 14.2
2008-12-17 08:48:00 51°19.647 2°51.447 5.5 12 358 14.2
2008-12-17 08:48:05 51°19.664 2°51.447 5.5 12 358 14.2
2008-12-17 08:48:10 51°19.68 2°51.446 5.6 11.9 358 14.1
2008-12-17 08:48:15 51°19.697 2°51.445 6.2 11.9 358 14
2008-12-17 08:48:20 51°19.713 2°51.444 6.1 12 358 14.2
2008-12-17 08:48:25 51°19.73 2°51.443 6 12 359 14.1
2008-12-17 08:48:30 51°19.746 2°51.442 5.4 12 356 14
2008-12-17 08:48:35 51°19.763 2°51.441 4.7 11.9 357 14
2008-12-17 08:48:40 51°19.779 2°51.438 3.9 12 355 13.9
2008-12-17 08:48:45 51°19.796 2°51.437 3.6 12 357 13.9
2008-12-17 08:48:50 51°19.813 2°51.435 3.9 12 357 13.8
2008-12-17 08:48:55 51°19.829 2°51.434 4.2 12 356 13.8
2008-12-17 08:49:00 51°19.846 2°51.432 3.9 12 356 13.7
2008-12-17 08:49:05 51°19.863 2°51.43 3.7 12 356 13.6
2008-12-17 08:49:10 51°19.879 2°51.428 3.4 12 355 13.4
2008-12-17 08:49:15 51°19.896 2°51.426 3.5 12 355 13.4
2008-12-17 08:49:20 51°19.913 2°51.423 3.5 12 355 13.3
2008-12-17 08:49:25 51°19.929 2°51.42 3 12 354 13
2008-12-17 08:49:30 51°19.946 2°51.417 2.6 11.9 355 12.9
2008-12-17 08:49:35 51°19.962 2°51.415 3.1 11.9 355 12.8
2008-12-17 08:49:40 51°19.979 2°51.413 3.2 12 354 12.8
2008-12-17 08:49:45 51°19.995 2°51.411 3.2 12 355 12.7
2008-12-17 08:49:50 51°20.012 2°51.408 3.8 11.9 355 12.6
2008-12-17 08:49:55 51°20.028 2°51.406 3.9 11.9 356 12.4
2008-12-17 08:50:00 51°20.045 2°51.404 3.9 11.9 355 12.3
2008-12-17 08:50:05 51°20.061 2°51.402 3.7 11.9 356 12
2008-12-17 08:50:10 51°20.077 2°51.399 3.9 11.9 355 11.9
2008-12-17 08:50:15 51°20.094 2°51.397 3.6 11.9 355 11.7
2008-12-17 08:50:20 51°20.11 2°51.395 3.5 11.9 355 11.8
2008-12-17 08:50:25 51°20.127 2°51.393 3.6 11.9 355 12
2008-12-17 08:50:30 51°20.143 2°51.391 3.7 11.9 356 12
2008-12-17 08:50:35 51°20.16 2°51.389 4.5 12 355 12
2008-12-17 08:50:40 51°20.176 2°51.387 4 12 356 12
2008-12-17 08:50:45 51°20.193 2°51.386 4.9 11.9 358 11.9
2008-12-17 08:50:50 51°20.209 2°51.385 6.1 11.9 358 11.9
2008-12-17 08:50:55 51°20.225 2°51.384 6.4 11.9 359 11.8
2008-12-17 08:51:00 51°20.242 2°51.384 7.5 11.9 359 12
2008-12-17 08:51:05 51°20.258 2°51.383 7.1 11.9 358 12.2
2008-12-17 08:51:10 51°20.275 2°51.382 7.3 11.9 359 12.2
2008-12-17 08:51:15 51°20.291 2°51.381 7.5 11.9 358 12.3
2008-12-17 08:51:20 51°20.308 2°51.38 7 11.9 357 12.4
2008-12-17 08:51:25 51°20.325 2°51.379 6.8 11.9 358 12.5
2008-12-17 08:51:30 51°20.341 2°51.378 7 11.9 357 12.7
2008-12-17 08:51:35 51°20.358 2°51.377 6.9 12 358 12.8
2008-12-17 08:51:40 51°20.374 2°51.376 6.6 11.9 358 12.9
2008-12-17 08:51:45 51°20.391 2°51.375 6.5 11.9 358 13.1
2008-12-17 08:51:50 51°20.407 2°51.374 6.7 12 358 13.2
2008-12-17 08:51:55 51°20.424 2°51.374 7.1 11.9 359 13.4
2008-12-17 08:52:00 51°20.44 2°51.373 7.3 11.9 358 13.5
2008-12-17 08:52:05 51°20.457 2°51.372 6.6 11.9 359 13.9
2008-12-17 08:52:10 51°20.474 2°51.37 5.4 11.9 356 14
2008-12-17 08:52:15 51°20.49 2°51.369 5.1 11.9 358 13.8
2008-12-17 08:52:20 51°20.507 2°51.367 5.1 12 357 14.2
2008-12-17 08:52:25 51°20.523 2°51.367 5.9 11.9 359 14.4
2008-12-17 08:52:30 51°20.54 2°51.366 6.1 11.9 358 14.5
2008-12-17 08:52:35 51°20.556 2°51.365 6.2 11.9 358 14.5
2008-12-17 08:52:40 51°20.573 2°51.364 5.6 11.9 357 14.7
2008-12-17 08:52:45 51°20.589 2°51.362 4.6 11.9 357 14.7
2008-12-17 08:52:50 51°20.606 2°51.36 3.9 11.8 356 15
2008-12-17 08:52:55 51°20.622 2°51.359 3.9 11.9 357 15.2
2008-12-17 08:53:00 51°20.638 2°51.357 3.9 11.9 355 15.3
2008-12-17 08:53:05 51°20.655 2°51.355 3.6 11.9 357 15.5
2008-12-17 08:53:10 51°20.671 2°51.353 3.3 11.9 355 15.6
2008-12-17 08:53:15 51°20.688 2°51.351 3.4 11.8 357 15.8
2008-12-17 08:53:19 51°20.701 2°51.35 3.7 11.8 356 16
2008-12-17 08:53:25 51°20.72 2°51.348 3.5 11.8 356 16
2008-12-17 08:53:30 51°20.736 2°51.346 3.9 11.8 357 16.2
2008-12-17 08:53:35 51°20.753 2°51.345 4 11.8 357 16.3
2008-12-17 08:53:39 51°20.766 2°51.344 3.9 11.8 356 16.6
2008-12-17 08:53:45 51°20.786 2°51.342 3.6 11.8 356 16.7
2008-12-17 08:53:50 51°20.802 2°51.34 3.4 11.8 356 16.7
2008-12-17 08:53:55 51°20.818 2°51.339 3.8 11.8 357 16.8
2008-12-17 08:53:59 51°20.831 2°51.337 3.9 11.8 356 17
2008-12-17 08:54:05 51°20.851 2°51.336 4.2 11.8 357 16.9
2008-12-17 08:54:10 51°20.867 2°51.334 3.9 11.8 356 17.1
2008-12-17 08:54:15 51°20.884 2°51.333 3.9 11.8 357 17.3
2008-12-17 08:54:19 51°20.897 2°51.331 4.2 11.8 357 17.5
2008-12-17 08:54:25 51°20.916 2°51.33 4.2 11.8 357 17.6
2008-12-17 08:54:30 51°20.933 2°51.328 4 11.8 356 17.7
2008-12-17 08:54:35 51°20.949 2°51.327 3.9 11.8 357 18
2008-12-17 08:54:39 51°20.962 2°51.325 4 11.8 357 18.2
2008-12-17 08:54:45 51°20.982 2°51.324 4.2 11.8 357 18.2
2008-12-17 08:54:50 51°20.998 2°51.323 4.4 11.8 357 18.5
2008-12-17 08:54:55 51°21.015 2°51.321 4.5 11.8 357 18.7
2008-12-17 08:54:59 51°21.028 2°51.32 4.6 11.8 358 19
2008-12-17 08:55:05 51°21.047 2°51.319 4.9 11.8 358 19.1
2008-12-17 08:55:10 51°21.064 2°51.32 6.1 11.7 -999 19.4
2008-12-17 08:55:15 51°21.08 2°51.32 6.9 11.8 -999 19.5
2008-12-17 08:55:19 51°21.093 2°51.319 6.3 11.8 359 19.9
2008-12-17 08:55:25 51°21.113 2°51.318 5.6 11.8 358 20
2008-12-17 08:55:30 51°21.129 2°51.317 5.2 11.8 359 20.1
2008-12-17 08:55:35 51°21.145 2°51.317 5.3 11.8 358 20.3
2008-12-17 08:55:39 51°21.158 2°51.316 5.5 11.8 -999 20.4
2008-12-17 08:55:45 51°21.178 2°51.317 6.7 11.8 1 21
2008-12-17 08:55:50 51°21.194 2°51.317 6.8 11.8 1 20.7
2008-12-17 08:55:55 51°21.211 2°51.317 6.9 11.7 -999 20.9
2008-12-17 08:55:59 51°21.224 2°51.317 6.8 11.7 1 21.1
2008-12-17 08:56:05 51°21.243 2°51.318 7.6 11.7 -999 21.3
2008-12-17 08:56:10 51°21.26 2°51.317 6.6 11.7 359 21.4
2008-12-17 08:56:15 51°21.276 2°51.317 5.8 11.7 359 21.6
2008-12-17 08:56:19 51°21.289 2°51.316 5.3 11.7 358 21.9
2008-12-17 08:56:25 51°21.308 2°51.315 4.9 11.7 358 22
2008-12-17 08:56:30 51°21.325 2°51.314 4.4 11.7 357 22.1
2008-12-17 08:56:35 51°21.341 2°51.313 4 11.8 358 22.2
2008-12-17 08:56:39 51°21.354 2°51.312 4.6 11.7 358 22.4
2008-12-17 08:56:45 51°21.374 2°51.311 4.7 11.7 357 22.4
2008-12-17 08:56:50 51°21.39 2°51.31 4.5 11.7 357 22.8
2008-12-17 08:56:55 51°21.406 2°51.308 3.9 11.8 357 22.9
2008-12-17 08:56:59 51°21.419 2°51.308 4.4 11.7 359 22.7
2008-12-17 08:57:05 51°21.438 2°51.306 4.8 11.7 357 23
2008-12-17 08:57:10 51°21.454 2°51.306 4.6 11.7 358 22.9
2008-12-17 08:57:15 51°21.471 2°51.304 4.6 11.7 357 23.1
2008-12-17 08:57:19 51°21.484 2°51.303 4.1 11.7 357 22.9
2008-12-17 08:57:24 51°21.5 2°51.302 4 11.7 358 23.1
2008-12-17 08:57:30 51°21.519 2°51.301 4.2 11.7 357 22.9
2008-12-17 08:57:35 51°21.536 2°51.3 5 11.7 -999 23.1
2008-12-17 08:57:39 51°21.549 2°51.3 5.8 11.8 359 23.1
2008-12-17 08:57:45 51°21.568 2°51.299 6 11.7 -999 23.2
2008-12-17 08:57:50 51°21.585 2°51.3 6.9 11.8 -999 23.1
2008-12-17 08:57:55 51°21.601 2°51.3 7.2 11.8 1 23.2
2008-12-17 08:57:59 51°21.614 2°51.3 7.2 11.8 1 23.3
2008-12-17 08:58:04 51°21.63 2°51.3 7.1 11.8 -999 23.2
2008-12-17 08:58:10 51°21.65 2°51.301 7.3 11.8 1 23.2
2008-12-17 08:58:15 51°21.666 2°51.301 7.5 11.9 -999 23.1
2008-12-17 08:58:19 51°21.68 2°51.301 7.5 11.8 1 23.3
2008-12-17 08:58:24 51°21.696 2°51.302 7.8 11.9 -999 23.4
2008-12-17 08:58:30 51°21.716 2°51.302 7.2 11.8 -999 23.3
2008-12-17 08:58:35 51°21.732 2°51.302 7 11.9 -999 23.2
2008-12-17 08:58:40 51°21.749 2°51.302 6.8 11.8 -999 23.3
2008-12-17 08:58:44 51°21.762 2°51.302 7 11.9 -999 23.3
2008-12-17 08:58:50 51°21.782 2°51.302 6.7 11.9 359 23.4
2008-12-17 08:58:55 51°21.798 2°51.301 6.4 12 359 23.3
2008-12-17 08:58:59 51°21.812 2°51.301 5.9 11.9 -999 23.3
2008-12-17 08:59:05 51°21.831 2°51.301 6.4 11.9 359 23.1
2008-12-17 08:59:10 51°21.848 2°51.301 6.7 11.9 -999 23.2
2008-12-17 08:59:15 51°21.864 2°51.3 6.3 11.9 359 23.2
2008-12-17 08:59:19 51°21.878 2°51.3 6.4 11.9 -999 23.2
2008-12-17 08:59:25 51°21.897 2°51.3 6.8 11.9 -999 23.2
2008-12-17 08:59:30 51°21.914 2°51.3 6.6 11.9 -999 23.2
2008-12-17 08:59:35 51°21.931 2°51.3 6.6 11.9 359 23.2
2008-12-17 08:59:39 51°21.944 2°51.3 6.4 11.9 -999 23.3
2008-12-17 08:59:45 51°21.964 2°51.299 6.3 11.9 359 23.1
2008-12-17 08:59:50 51°21.98 2°51.299 6.1 11.9 -999 23
2008-12-17 08:59:55 51°21.997 2°51.298 6.1 11.9 359 23
2008-12-17 08:59:59 51°22.01 2°51.298 6.1 11.9 359 22.9
2008-12-17 09:00:05 51°22.03 2°51.297 6 11.9 359 22.8
2008-12-17 09:00:10 51°22.047 2°51.296 5.3 11.9 358 22.7
2008-12-17 09:00:15 51°22.063 2°51.295 4.8 12 357 22.4
2008-12-17 09:00:19 51°22.076 2°51.294 3.8 12 356 22.4
2008-12-17 09:00:24 51°22.093 2°51.292 3.2 12 356 22.1
2008-12-17 09:00:30 51°22.113 2°51.29 3.2 11.9 357 22.2
2008-12-17 09:00:35 51°22.129 2°51.288 3.5 11.9 357 22.2
2008-12-17 09:00:39 51°22.143 2°51.287 3.9 11.9 357 22.1
2008-12-17 09:00:45 51°22.162 2°51.286 3.9 11.9 357 22.2
2008-12-17 09:00:50 51°22.179 2°51.285 4.5 11.9 358 22.1
2008-12-17 09:00:55 51°22.195 2°51.283 4.3 11.9 357 22.2
2008-12-17 09:00:59 51°22.209 2°51.282 4 11.9 357 22.1
2008-12-17 09:01:04 51°22.225 2°51.281 3.8 11.9 358 22.2
2008-12-17 09:01:10 51°22.245 2°51.279 4 11.9 357 22.5
2008-12-17 09:01:15 51°22.262 2°51.278 4 12 357 22.5
2008-12-17 09:01:20 51°22.278 2°51.277 3.6 12 357 22.5
2008-12-17 09:01:24 51°22.291 2°51.276 3.9 12 358 22.5
2008-12-17 09:01:30 51°22.311 2°51.274 3.7 12 357 22.5
2008-12-17 09:01:35 51°22.328 2°51.273 3.9 12 358 22.4
2008-12-17 09:01:40 51°22.344 2°51.272 4 12 357 22.6
2008-12-17 09:01:45 51°22.361 2°51.271 3.9 12 358 22.4
2008-12-17 09:01:50 51°22.378 2°51.27 4.2 12 358 22.5
2008-12-17 09:01:55 51°22.394 2°51.269 4.2 12 357 22.2
2008-12-17 09:01:59 51°22.407 2°51.268 4 11.9 358 22.3
2008-12-17 09:02:04 51°22.424 2°51.267 3.9 12 357 22.5
2008-12-17 09:02:10 51°22.443 2°51.265 3.2 12 356 22.1
2008-12-17 09:02:15 51°22.46 2°51.263 2.5 12 356 22
2008-12-17 09:02:20 51°22.477 2°51.262 2.7 12 357 21.9
2008-12-17 09:02:24 51°22.49 2°51.26 2.9 12 357 22.1
2008-12-17 09:02:30 51°22.51 2°51.259 3.2 12 357 21.8
2008-12-17 09:02:35 51°22.526 2°51.257 3.5 12 357 21.8
2008-12-17 09:02:39 51°22.539 2°51.256 3.7 12 357 22.1
2008-12-17 09:02:44 51°22.556 2°51.255 3.5 12 357 22
2008-12-17 09:02:50 51°22.576 2°51.254 3.7 11.9 358 22
2008-12-17 09:02:55 51°22.593 2°51.252 4.3 12 357 22.1
2008-12-17 09:02:59 51°22.606 2°51.251 3.6 12 358 22.1
2008-12-17 09:03:04 51°22.623 2°51.251 3.8 11.9 358 22.2
2008-12-17 09:03:10 51°22.643 2°51.249 4 11.9 357 22
2008-12-17 09:03:15 51°22.659 2°51.248 3.7 11.9 358 21.9
2008-12-17 09:03:19 51°22.672 2°51.247 3.6 11.9 357 22.1
2008-12-17 09:03:24 51°22.689 2°51.246 3.4 11.9 357 21.9
2008-12-17 09:03:30 51°22.708 2°51.244 3.2 11.9 357 21.8
2008-12-17 09:03:35 51°22.725 2°51.243 3.3 11.9 357 21.8
2008-12-17 09:03:40 51°22.741 2°51.242 3.6 11.9 357 21.9
2008-12-17 09:03:44 51°22.755 2°51.24 2.4 12 355 21.8
2008-12-17 09:03:50 51°22.775 2°51.238 1.8 12 357 21.7
2008-12-17 09:03:55 51°22.791 2°51.235 2.1 12 356 21.5
2008-12-17 09:04:00 51°22.808 2°51.235 2.6 12 358 21.6
2008-12-17 09:04:05 51°22.825 2°51.233 3 12 357 21.4
2008-12-17 09:04:10 51°22.841 2°51.233 3.5 12 359 21.4
2008-12-17 09:04:15 51°22.858 2°51.231 3.9 11.9 358 21.3
2008-12-17 09:04:19 51°22.871 2°51.231 4.2 12 358 21.2
2008-12-17 09:04:25 51°22.891 2°51.23 3.9 12 358 21.3
2008-12-17 09:04:30 51°22.908 2°51.229 3.8 12 358 21.1
2008-12-17 09:04:35 51°22.924 2°51.228 3.7 12.1 357 20.9
2008-12-17 09:04:40 51°22.941 2°51.227 3.4 12 358 20.3
2008-12-17 09:04:45 51°22.958 2°51.225 3.5 12 357 19.5
2008-12-17 09:04:50 51°22.974 2°51.225 3.5 12 357 18
2008-12-17 09:04:55 51°22.991 2°51.223 3 12 358 19.8
2008-12-17 09:05:00 51°23.007 2°51.222 3.5 12 358 19.9
2008-12-17 09:05:05 51°23.024 2°51.221 3.3 12 357 19.3
2008-12-17 09:05:10 51°23.041 2°51.219 2.5 12 358 18.2
2008-12-17 09:05:15 51°23.058 2°51.218 2.7 12 357 17.1
2008-12-17 09:05:20 51°23.074 2°51.217 2.4 12 357 15.9
2008-12-17 09:05:25 51°23.091 2°51.216 2.8 11.9 358 13.1
2008-12-17 09:05:30 51°23.107 2°51.214 3.2 11.9 358 14.7
2008-12-17 09:05:35 51°23.124 2°51.213 3 11.9 357 14.8
2008-12-17 09:05:40 51°23.14 2°51.212 2.1 11.9 358 13
2008-12-17 09:05:45 51°23.157 2°51.211 2.7 11.9 357 14.2
2008-12-17 09:05:50 51°23.173 2°51.21 2.8 11.8 358 14.3
2008-12-17 09:05:55 51°23.189 2°51.209 3.2 11.9 357 13.4
2008-12-17 09:06:00 51°23.206 2°51.208 3.1 11.9 357 12.5
2008-12-17 09:06:05 51°23.222 2°51.207 3.2 11.8 357 13.8
2008-12-17 09:06:10 51°23.238 2°51.205 3 11.9 357 14.4
2008-12-17 09:06:15 51°23.255 2°51.204 3.2 11.8 357 13.6
2008-12-17 09:06:20 51°23.271 2°51.202 3.7 11.8 357 13.5
2008-12-17 09:06:24 51°23.284 2°51.201 3.7 11.8 357 14.2
2008-12-17 09:06:30 51°23.304 2°51.2 3.5 11.8 357 14.4
2008-12-17 09:06:35 51°23.32 2°51.198 3.5 11.8 357 14.1
2008-12-17 09:06:39 51°23.333 2°51.197 3.6 11.8 357 13.7
2008-12-17 09:06:45 51°23.353 2°51.195 3.7 11.7 357 12.2
2008-12-17 09:06:50 51°23.369 2°51.194 3.6 11.7 357 12.7
2008-12-17 09:06:55 51°23.385 2°51.192 3.6 11.7 357 14.2
2008-12-17 09:06:59 51°23.398 2°51.191 3.5 11.7 357 14.8
2008-12-17 09:07:04 51°23.415 2°51.19 4.2 11.8 358 14.9
2008-12-17 09:07:10 51°23.434 2°51.188 4 11.8 357 14.7
2008-12-17 09:07:15 51°23.45 2°51.188 3.7 11.8 358 15.1
2008-12-17 09:07:19 51°23.463 2°51.187 3.9 11.8 357 14.3
2008-12-17 09:07:24 51°23.479 2°51.186 3.3 11.8 356 14.9
2008-12-17 09:07:30 51°23.499 2°51.183 2.6 11.8 357 15.5
2008-12-17 09:07:35 51°23.515 2°51.182 2.7 11.8 356 15.6
2008-12-17 09:07:40 51°23.532 2°51.18 3.2 11.8 357 15.3
2008-12-17 09:07:44 51°23.545 2°51.179 3.3 11.8 357 15.4
2008-12-17 09:07:50 51°23.565 2°51.177 2.6 11.8 356 15.7
2008-12-17 09:07:55 51°23.581 2°51.175 2 11.8 355 15.9
2008-12-17 09:07:59 51°23.594 2°51.173 1.5 11.8 355 16.2
2008-12-17 09:08:05 51°23.613 2°51.171 1.6 11.8 356 16.4
2008-12-17 09:08:10 51°23.63 2°51.168 1.7 11.8 355 16.5
2008-12-17 09:08:15 51°23.646 2°51.166 1.1 11.8 356 16.7
2008-12-17 09:08:19 51°23.659 2°51.164 1.4 11.9 356 16.6
2008-12-17 09:08:25 51°23.679 2°51.162 2.2 11.8 356 16.8
2008-12-17 09:08:30 51°23.695 2°51.161 2.7 11.8 358 15.6
2008-12-17 09:08:35 51°23.712 2°51.16 3.3 11.8 356 16.5
2008-12-17 09:08:40 51°23.728 2°51.157 2.6 11.8 356 17.4
2008-12-17 09:08:45 51°23.745 2°51.156 2.7 11.8 357 17.8
2008-12-17 09:08:50 51°23.761 2°51.154 2.3 11.9 355 18.1
2008-12-17 09:08:55 51°23.777 2°51.152 1.4 11.8 356 18.3
2008-12-17 09:09:00 51°23.794 2°51.15 1.8 11.8 356 18.2
2008-12-17 09:09:05 51°23.81 2°51.148 1.7 11.8 355 18.6
2008-12-17 09:09:10 51°23.826 2°51.146 1.3 11.7 357 18.6
2008-12-17 09:09:15 51°23.842 2°51.145 2.5 11.8 356 18.7
2008-12-17 09:09:20 51°23.859 2°51.143 2.5 11.8 357 18.2
2008-12-17 09:09:25 51°23.875 2°51.142 3.2 11.9 357 17.9
2008-12-17 09:09:30 51°23.892 2°51.141 3.4 11.8 357 16.6
2008-12-17 09:09:35 51°23.908 2°51.138 2.9 11.8 355 17.1
2008-12-17 09:09:40 51°23.924 2°51.137 2.5 11.7 358 18.4
2008-12-17 09:09:45 51°23.941 2°51.136 3.4 11.8 357 19.5
2008-12-17 09:09:50 51°23.957 2°51.135 3.6 11.8 359 19.5
2008-12-17 09:09:55 51°23.973 2°51.134 4.2 11.8 358 19.6
2008-12-17 09:10:00 51°23.99 2°51.133 4.5 11.8 359 19.5
2008-12-17 09:10:05 51°24.006 2°51.132 4.1 11.7 358 19.8
2008-12-17 09:10:10 51°24.022 2°51.132 4.2 11.8 358 19.5
2008-12-17 09:10:15 51°24.039 2°51.131 3.9 11.8 358 18.7
2008-12-17 09:10:20 51°24.055 2°51.13 3.8 11.8 358 19.6
2008-12-17 09:10:25 51°24.071 2°51.129 4 11.8 358 20
2008-12-17 09:10:30 51°24.087 2°51.128 4.3 11.8 358 20.2
2008-12-17 09:10:35 51°24.104 2°51.127 3.7 11.8 357 20.1
2008-12-17 09:10:40 51°24.12 2°51.126 3.2 11.8 357 20
2008-12-17 09:10:45 51°24.137 2°51.124 3.1 11.8 357 20.2
2008-12-17 09:10:50 51°24.153 2°51.124 3.9 11.8 358 20.3
2008-12-17 09:10:55 51°24.169 2°51.123 4.1 11.8 357 20.8
2008-12-17 09:11:00 51°24.185 2°51.122 3.5 11.8 358 20.8
2008-12-17 09:11:05 51°24.202 2°51.121 4 11.8 358 20.8
2008-12-17 09:11:10 51°24.218 2°51.12 3.9 11.8 358 21
2008-12-17 09:11:15 51°24.234 2°51.119 3.9 11.8 357 21
2008-12-17 09:11:20 51°24.25 2°51.118 3.9 11.7 358 21
2008-12-17 09:11:25 51°24.267 2°51.117 4.3 11.7 357 21
2008-12-17 09:11:30 51°24.283 2°51.116 4.3 11.7 358 21
2008-12-17 09:11:35 51°24.299 2°51.114 3.6 11.6 357 21.2
2008-12-17 09:11:40 51°24.315 2°51.113 3.8 11.5 358 21.1
2008-12-17 09:11:45 51°24.331 2°51.112 3.6 11.5 357 21.2
2008-12-17 09:11:50 51°24.347 2°51.111 3.7 11.5 357 21.3
2008-12-17 09:11:55 51°24.363 2°51.11 3.8 11.5 358 21.3
2008-12-17 09:12:00 51°24.379 2°51.109 4 11.5 358 21.2
2008-12-17 09:12:05 51°24.394 2°51.108 3.9 11.5 356 21.2
2008-12-17 09:12:10 51°24.411 2°51.107 3.2 11.5 357 21.2
2008-12-17 09:12:15 51°24.426 2°51.104 2.9 11.5 356 21
2008-12-17 09:12:20 51°24.442 2°51.104 3.4 11.5 358 21
2008-12-17 09:12:25 51°24.458 2°51.102 3.6 11.6 356 20.9
2008-12-17 09:12:30 51°24.474 2°51.101 3.4 11.6 358 20.9
2008-12-17 09:12:35 51°24.49 2°51.1 3.6 11.6 357 20.8
2008-12-17 09:12:40 51°24.507 2°51.099 3.6 11.7 357 20.8
2008-12-17 09:12:45 51°24.522 2°51.097 3.2 11.6 357 20.9
2008-12-17 09:12:50 51°24.538 2°51.096 3.3 11.6 357 21
2008-12-17 09:12:55 51°24.555 2°51.095 3.9 11.6 358 21.2
2008-12-17 09:13:00 51°24.571 2°51.094 4.3 11.6 358 21.4
2008-12-17 09:13:05 51°24.587 2°51.093 4.4 11.5 358 21.4
2008-12-17 09:13:10 51°24.603 2°51.092 4.1 11.6 358 21.7
2008-12-17 09:13:15 51°24.619 2°51.091 4.2 11.6 358 21.8
2008-12-17 09:13:20 51°24.635 2°51.089 3.9 11.7 357 21.8
2008-12-17 09:13:25 51°24.651 2°51.088 3.7 11.5 357 21.9
2008-12-17 09:13:30 51°24.667 2°51.087 3.8 11.6 357 22
2008-12-17 09:13:35 51°24.683 2°51.085 3.9 11.6 356 22.1
2008-12-17 09:13:40 51°24.699 2°51.084 3.3 11.6 356 22
2008-12-17 09:13:45 51°24.715 2°51.082 3.5 11.7 357 22.1
2008-12-17 09:13:50 51°24.732 2°51.081 3.6 11.7 357 22.1
2008-12-17 09:13:55 51°24.748 2°51.079 3.3 11.6 356 22.2
2008-12-17 09:14:00 51°24.764 2°51.078 3.2 11.7 357 22.1
2008-12-17 09:14:05 51°24.78 2°51.075 3 11.7 355 22.1
2008-12-17 09:14:10 51°24.796 2°51.073 1.8 11.6 356 22.2
2008-12-17 09:14:15 51°24.812 2°51.071 2.5 11.7 354 22.1
2008-12-17 09:14:20 51°24.828 2°51.068 1.7 11.7 355 22
2008-12-17 09:14:25 51°24.844 2°51.066 1.7 11.7 354 22.1
2008-12-17 09:14:30 51°24.861 2°51.063 1.6 11.6 355 22.1
2008-12-17 09:14:35 51°24.877 2°51.061 1.5 11.7 354 21.9
2008-12-17 09:14:40 51°24.893 2°51.059 1.5 11.7 355 22
2008-12-17 09:14:45 51°24.909 2°51.057 1.9 11.7 355 21.9
2008-12-17 09:14:50 51°24.925 2°51.054 1.5 11.7 354 21.9
2008-12-17 09:14:55 51°24.941 2°51.051 1.2 11.7 355 21.6
2008-12-17 09:15:00 51°24.957 2°51.049 1.5 11.7 355 21.8
2008-12-17 09:15:05 51°24.974 2°51.047 1.6 11.7 355 21.8
2008-12-17 09:15:10 51°24.99 2°51.045 1.8 11.7 355 21.9
2008-12-17 09:15:15 51°25.006 2°51.042 1.3 11.7 354 21.8
2008-12-17 09:15:20 51°25.022 2°51.038 0.3 11.7 352 21.8
2008-12-17 09:15:25 51°25.038 2°51.036 359.5 11.8 353 21.8
2008-12-17 09:15:30 51°25.055 2°51.032 359.7 11.7 353 21.8
2008-12-17 09:15:35 51°25.071 2°51.029 0.2 11.7 353 21.8
2008-12-17 09:15:39 51°25.084 2°51.027 -999 11.8 352 21.7
2008-12-17 09:15:45 51°25.103 2°51.022 359.4 11.7 353 21.8
2008-12-17 09:15:50 51°25.119 2°51.019 359.4 11.7 352 21.8
2008-12-17 09:15:55 51°25.135 2°51.015 359.1 11.7 352 22
2008-12-17 09:15:59 51°25.148 2°51.012 359.4 11.7 353 21.9
2008-12-17 09:16:05 51°25.167 2°51.009 0.5 11.7 354 21.9
2008-12-17 09:16:10 51°25.184 2°51.006 0.8 11.7 354 21.9
2008-12-17 09:16:15 51°25.2 2°51.004 1.3 11.6 355 22.1
2008-12-17 09:16:19 51°25.212 2°51.002 1.9 11.6 355 22
2008-12-17 09:16:25 51°25.232 2°51 2.1 11.6 355 22
2008-12-17 09:16:30 51°25.248 2°50.996 1.4 11.7 353 21.8
2008-12-17 09:16:35 51°25.264 2°50.994 1 11.6 354 21.9
2008-12-17 09:16:39 51°25.277 2°50.992 1.2 11.7 354 21.9
2008-12-17 09:16:45 51°25.296 2°50.988 1.2 11.6 354 22
2008-12-17 09:16:50 51°25.312 2°50.986 1.6 11.6 355 21.9
2008-12-17 09:16:55 51°25.328 2°50.984 1.6 11.6 354 22
2008-12-17 09:16:59 51°25.341 2°50.982 1.7 11.6 355 22.1
2008-12-17 09:17:05 51°25.36 2°50.979 1.7 11.7 354 22.1
2008-12-17 09:17:10 51°25.376 2°50.977 1.7 11.7 355 22
2008-12-17 09:17:15 51°25.392 2°50.974 1.8 11.7 354 22.1
2008-12-17 09:17:19 51°25.405 2°50.972 1.2 11.7 355 22.2
2008-12-17 09:17:25 51°25.425 2°50.969 1.2 11.6 353 22.3
2008-12-17 09:17:30 51°25.441 2°50.967 1.3 11.6 355 22.2
2008-12-17 09:17:35 51°25.457 2°50.965 1.6 11.6 356 22.3
2008-12-17 09:17:39 51°25.47 2°50.963 2.4 11.6 355 22.3
2008-12-17 09:17:45 51°25.489 2°50.96 1.6 11.6 355 22.2
2008-12-17 09:17:50 51°25.505 2°50.958 1.7 11.6 354 22.5
2008-12-17 09:17:55 51°25.521 2°50.955 1.5 11.6 355 22.5
2008-12-17 09:17:59 51°25.533 2°50.954 1.5 11.6 354 22.6
2008-12-17 09:18:05 51°25.553 2°50.951 1.3 11.6 355 22.6
2008-12-17 09:18:10 51°25.569 2°50.949 1.6 11.6 355 22.6
2008-12-17 09:18:15 51°25.585 2°50.945 1.4 11.7 353 22.7
2008-12-17 09:18:19 51°25.598 2°50.943 0.5 11.7 353 22.7
2008-12-17 09:18:25 51°25.617 2°50.939 0.3 11.7 353 22.7
2008-12-17 09:18:30 51°25.633 2°50.936 359.8 11.7 354 22.7
2008-12-17 09:18:35 51°25.649 2°50.933 -999 11.7 353 22.6
2008-12-17 09:18:39 51°25.662 2°50.931 359.8 11.7 354 22.6
2008-12-17 09:18:45 51°25.681 2°50.926 359.5 11.7 352 22.6
2008-12-17 09:18:50 51°25.698 2°50.923 359.1 11.7 353 22.5
2008-12-17 09:18:55 51°25.713 2°50.919 358.9 11.7 352 22.7
2008-12-17 09:18:59 51°25.727 2°50.916 359.1 11.7 353 22.6
2008-12-17 09:19:05 51°25.746 2°50.913 359.5 11.7 352 22.6
2008-12-17 09:19:10 51°25.762 2°50.909 359.2 11.7 352 22.5
2008-12-17 09:19:15 51°25.778 2°50.906 359.2 11.7 353 22.5
2008-12-17 09:19:19 51°25.791 2°50.903 359.3 11.7 352 22.3
2008-12-17 09:19:24 51°25.807 2°50.9 359.4 11.7 353 22.5
2008-12-17 09:19:30 51°25.827 2°50.897 0.1 11.7 354 22.4
2008-12-17 09:19:35 51°25.843 2°50.894 0.3 11.7 354 22.3
2008-12-17 09:19:39 51°25.856 2°50.892 1 11.7 355 22.3
2008-12-17 09:19:44 51°25.872 2°50.89 1 11.7 355 22.4
2008-12-17 09:19:50 51°25.891 2°50.887 1.7 11.7 355 22.4
2008-12-17 09:19:55 51°25.907 2°50.885 1.7 11.7 355 22.3
2008-12-17 09:19:59 51°25.92 2°50.883 1.9 11.7 356 22.4
2008-12-17 09:20:04 51°25.936 2°50.881 2.1 11.8 355 22.5
2008-12-17 09:20:10 51°25.956 2°50.878 1.9 11.8 353 22.4
2008-12-17 09:20:15 51°25.972 2°50.876 1.9 11.7 356 22.7
2008-12-17 09:20:19 51°25.985 2°50.874 1.9 11.8 355 22.6
2008-12-17 09:20:24 51°26.001 2°50.872 2.2 11.7 355 22.7
2008-12-17 09:20:30 51°26.021 2°50.87 1.5 11.8 355 22.7
2008-12-17 09:20:35 51°26.037 2°50.867 1.5 11.7 356 22.8
2008-12-17 09:20:40 51°26.053 2°50.866 2.2 11.7 356 22.7
2008-12-17 09:20:44 51°26.067 2°50.864 2.4 11.8 356 22.6
2008-12-17 09:20:50 51°26.086 2°50.862 2.4 11.8 356 22.6
2008-12-17 09:20:55 51°26.103 2°50.86 2.6 11.8 356 22.6
2008-12-17 09:20:59 51°26.115 2°50.858 2.3 11.8 356 22.6
2008-12-17 09:21:04 51°26.132 2°50.856 2.6 11.8 356 22.6
2008-12-17 09:21:10 51°26.151 2°50.854 2.3 11.8 356 22.6
2008-12-17 09:21:15 51°26.168 2°50.852 2.4 11.8 356 22.4
2008-12-17 09:21:20 51°26.184 2°50.851 2.5 11.9 356 22.6
2008-12-17 09:21:24 51°26.197 2°50.849 1.7 11.8 355 22.6
2008-12-17 09:21:30 51°26.217 2°50.846 1 11.9 355 22.7
2008-12-17 09:21:35 51°26.233 2°50.843 0.8 11.9 354 22.8
2008-12-17 09:21:39 51°26.246 2°50.841 0.6 11.9 355 22.8
2008-12-17 09:21:44 51°26.263 2°50.838 0.5 11.9 354 22.7
2008-12-17 09:21:50 51°26.282 2°50.835 -999 11.8 354 22.8
2008-12-17 09:21:55 51°26.299 2°50.832 359.9 11.9 354 22.7
2008-12-17 09:22:00 51°26.315 2°50.829 359.9 11.9 354 22.8
2008-12-17 09:22:04 51°26.328 2°50.828 0.6 11.8 356 22.7
2008-12-17 09:22:10 51°26.348 2°50.826 1.3 11.8 356 22.7
2008-12-17 09:22:15 51°26.364 2°50.824 2.3 11.8 357 22.7
2008-12-17 09:22:19 51°26.377 2°50.823 2.5 11.8 356 22.6
2008-12-17 09:22:24 51°26.394 2°50.822 2.6 11.8 357 22.5
2008-12-17 09:22:30 51°26.413 2°50.819 2.5 11.8 356 22.4
2008-12-17 09:22:35 51°26.43 2°50.818 2.5 11.9 356 22.4
2008-12-17 09:22:39 51°26.443 2°50.816 1.1 11.9 354 22.4
2008-12-17 09:22:45 51°26.462 2°50.814 0.8 11.8 357 22.3
2008-12-17 09:22:50 51°26.479 2°50.812 1.7 11.9 355 22.3
2008-12-17 09:22:55 51°26.495 2°50.81 1.7 11.9 357 22.4
2008-12-17 09:22:59 51°26.508 2°50.809 2.2 11.9 356 22.2
2008-12-17 09:23:04 51°26.525 2°50.807 2.4 11.8 357 22.2
2008-12-17 09:23:10 51°26.544 2°50.806 2.6 11.9 357 22.2
2008-12-17 09:23:15 51°26.561 2°50.804 2.4 11.9 357 22
2008-12-17 09:23:19 51°26.574 2°50.803 2.7 11.9 357 22
2008-12-17 09:23:24 51°26.591 2°50.801 2.2 11.9 355 21.9
2008-12-17 09:23:30 51°26.61 2°50.799 1.1 11.9 357 22
2008-12-17 09:23:35 51°26.627 2°50.797 0.9 11.9 355 22.2
2008-12-17 09:23:39 51°26.64 2°50.796 0.8 11.9 356 22.6
2008-12-17 09:23:45 51°26.66 2°50.793 1 11.9 355 22.5
2008-12-17 09:23:50 51°26.676 2°50.792 1.3 12 357 22.3